This demonstration page uses our WeatherBlox Daily Observations layout. Learn more.

Left ArrowRight Arrow

40.92945, -100.16068

Hourly Observations for March 2, 2021

Temp ( °F °C ) Dew Point ( °F °C ) Humidity (%) Winds ( mph kmh ) Pressure ( in mb ) Visibility ( mi km ) Precip ( " mm )
12:15 am 00:15 Clear 35 1.9 23 -5.1 60 60 S 10 17 30.28 1025 10 16.0934 0 0
12:35 am 00:35 Clear 34 1.2 23 -5.1 63 63 S 8 13 30.28 1025 10 16.0934 0 0
12:55 am 00:55 Clear 34 1.3 23 -5.2 62 62 S 9 15 30.27 1025 10 16.0934 0 0
1:15 am 01:15 Clear 34 1.3 22 -5.5 61 61 S 9 15 30.26 1025 10 16.0934 0 0
1:35 am 01:35 Clear 34 1.2 22 -5.5 61 61 S 8 13 30.27 1025 10 16.0934 0 0
1:55 am 01:55 Clear 35 1.8 21 -5.9 57 57 SSW 10 17 30.25 1024 10 16.0934 0 0
2:15 am 02:15 Clear 36 2 20 -6.5 54 54 SSW 12 19 30.25 1024 10 16.0934 0 0
2:40 am 02:40 Clear 35 1.6 20 -6.6 55 55 SSW 12 19 30.24 1024 10 16.0934 0 0
2:55 am 02:55 Clear 35 1.6 20 -6.8 54 54 SSW 12 19 30.23 1024 10 16.0934 0 0
3:15 am 03:15 Clear 35 1.8 19 -7 52 52 SW 16 26 30.21 1023 10 16.0934 0 0
3:35 am 03:35 Clear 35 1.8 19 -7 52 52 SW 14 22 30.21 1023 10 16.0934 0 0
3:55 am 03:55 Clear 36 2 19 -7.2 51 51 SSW 14 22 30.19 1022 10 16.0934 0 0
4:15 am 04:15 Clear 35 1.4 19 -7.1 54 54 SSW 14 22 30.18 1022 10 16.0934 0 0
4:35 am 04:35 Clear 34 1.2 19 -7.1 54 54 SSW 14 22 30.19 1022 10 16.0934 0 0
4:55 am 04:55 Clear 33 0.7 19 -7 57 57 SSW 13 20 30.19 1022 10 16.0934 0 0
5:15 am 05:15 Clear 34 1 19 -7.1 55 55 SSW 12 19 30.19 1022 10 16.0934 0 0
5:35 am 05:35 Clear 33 0.6 19 -7.2 56 56 SW 10 17 30.19 1022 10 16.0934 0 0
5:55 am 05:55 Clear 32 0 19 -7 60 60 SW 8 13 30.18 1022 10 16.0934 0 0
6:15 am 06:15 Clear 32 0.2 19 -7 59 59 SW 9 15 30.17 1022 10 16.0934 0 0
6:30 am 06:30 Clear 33 0.4 19 -7 58 58 SW 9 15 30.16 1021 10 16.0934 0 0
6:55 am 06:55 Clear 32 0 20 -6.9 60 60 SW 8 13 30.16 1021 10 16.0934 0 0
7:15 am 07:15 Sunny 31 -0.7 20 -6.9 63 63 SW 9 15 30.16 1021 10 16.0934 0 0
7:35 am 07:35 Sunny 32 0 20 -6.9 60 60 SW 9 15 30.16 1021 10 16.0934 0 0
7:55 am 07:55 Sunny 32 0 20 -6.7 61 61 SW 8 13 30.16 1021 10 16.0934 0 0
8:15 am 08:15 Sunny 35 1.4 19 -7 54 54 SW 9 15 30.14 1021 10 16.0934 0 0
8:35 am 08:35 Sunny 36 2.4 19 -7.4 49 49 SW 14 22 30.13 1020 10 16.0934 0 0
8:55 am 08:55 Sunny 37 3 19 -7 48 48 SW 10 17 30.13 1020 10 16.0934 0 0
9:15 am 09:15 Sunny 40 4.3 19 -7 44 44 WSW 9 15 30.11 1019 10 16.0934 0 0
9:35 am 09:35 Sunny 42 5.5 19 -7.2 40 40 SW 12 19 30.09 1019 10 16.0934 0 0
10:00 am 10:00 Sunny 44 6.7 20 -6.9 38 38 SW 17 28 30.06 1018 10 16.0934 0 0
10:15 am 10:15 Sunny 46 7.8 21 -6.1 37 37 SW 13 20 30.04 1017 10 16.0934 0 0
10:35 am 10:35 Sunny 48 8.8 21 -6.3 34 34 SW 15 24 30.02 1017 10 16.0934 0 0
10:55 am 10:55 Sunny 50 10.2 19 -7 29 29 SW 18 30 30 1016 10 16.0934 0 0
11:15 am 11:15 Sunny 52 11.1 18 -7.7 26 26 WSW 20 31 29.98 1015 10 16.0934 0 0
11:35 am 11:35 Sunny 54 12.3 19 -7.2 25 25 SW 21 33 29.97 1015 10 16.0934 0 0
11:55 am 11:55 Sunny 56 13.2 20 -6.6 25 25 WSW 16 26 29.96 1015 10 16.0934 0 0
12:15 pm 12:15 Sunny 57 14.1 20 -6.8 23 23 WSW 17 28 29.94 1014 10 16.0934 0 0
12:35 pm 12:35 Sunny 59 15.1 22 -5.5 24 24 WSW 13 20 29.93 1013 10 16.0934 0 0
12:50 pm 12:50 Sunny 60 15.6 21 -5.9 22 22 SW 14 22 29.91 1013 10 16.0934 0 0
1:15 pm 13:15 Sunny 61 16.3 20 -6.5 20 20 SW 16 26 29.87 1012 10 16.0934 0 0
1:35 pm 13:35 Sunny 63 17 20 -6.5 20 20 SW 16 26 29.86 1011 10 16.0934 0 0
1:55 pm 13:55 Sunny 64 17.8 21 -6 19 19 SW 17 28 29.84 1011 10 16.0934 0 0
2:15 pm 14:15 Sunny 65 18.1 22 -5.7 19 19 SW 15 24 29.83 1010 10 16.0934 0 0
2:35 pm 14:35 Sunny 65 18.5 21 -5.9 19 19 WSW 14 22 29.82 1010 10 16.0934 0 0
2:55 pm 14:55 Sunny 67 19.2 26 -3.6 21 21 NW 17 28 29.81 1009 10 16.0934 0 0
3:15 pm 15:15 Sunny 65 18.6 29 -1.8 25 25 NW 16 26 29.81 1010 10 16.0934 0 0
3:35 pm 15:35 Sunny 65 18.4 26 -3.4 23 23 NW 13 20 29.82 1010 10 16.0934 0 0
3:55 pm 15:55 Sunny 65 18.4 26 -3.5 22 22 NNW 14 22 29.82 1010 10 16.0934 0 0
4:15 pm 16:15 Sunny 65 18.5 28 -2.1 25 25 NNW 12 19 29.82 1010 10 16.0934 0 0
4:35 pm 16:35 Sunny 65 18.5 26 -3.3 23 23 NW 10 17 29.82 1010 10 16.0934 0 0
4:55 pm 16:55 Sunny 65 18.3 26 -3.4 23 23 NW 10 17 29.81 1009 10 16.0934 0 0
5:15 pm 17:15 Sunny 64 17.9 29 -1.8 26 26 NNW 10 17 29.82 1010 10 16.0934 0 0
5:35 pm 17:35 Sunny 63 17.1 32 -0.2 31 31 NNW 8 13 29.83 1010 10 16.0934 0 0
5:55 pm 17:55 Sunny 60 15.5 33 0.6 37 37 NNW 8 13 29.84 1011 10 16.0934 0 0
6:15 pm 18:15 Sunny 56 13.4 35 1.5 45 45 NNW 7 11 29.86 1011 10 16.0934 0 0
6:35 pm 18:35 Clear 54 12.4 33 0.4 44 44 N 7 11 29.88 1012 10 16.0934 0 0
6:55 pm 18:55 Clear 52 11.1 30 -0.9 44 44 N 6 9 29.89 1012 10 16.0934 0 0
7:15 pm 19:15 Clear 48 8.8 32 0 54 54 N 10 17 29.92 1013 10 16.0934 0 0
7:35 pm 19:35 Clear 45 7.3 30 -1.3 55 55 N 10 17 29.95 1014 10 16.0934 0 0
7:55 pm 19:55 Clear 42 5.8 30 -0.9 62 62 NNE 7 11 29.96 1015 10 16.0934 0 0
8:15 pm 20:15 Clear 41 5 30 -1.3 64 64 NNE 6 9 29.98 1015 10 16.0934 0 0
8:35 pm 20:35 Clear 42 5.4 29 -1.8 60 60 NNE 6 9 29.98 1015 10 16.0934 0 0
8:55 pm 20:55 Clear 38 3.5 28 -2.1 67 67 Calm 30.01 1016 10 16.0934 0 0
9:15 pm 21:15 Clear 37 2.9 29 -1.8 72 72 NW 3 6 30.02 1017 10 16.0934 0 0
9:35 pm 21:35 Clear 35 1.7 29 -1.8 78 78 WNW 5 7 30.03 1017 10 16.0934 0 0
9:55 pm 21:55 Clear 34 1.1 29 -1.8 81 81 W 6 9 30.04 1017 10 16.0934 0 0
10:15 pm 22:15 Clear 34 1.2 29 -1.7 81 81 WNW 7 11 30.03 1017 10 16.0934 0 0
10:35 pm 22:35 Clear 34 1.1 27 -2.6 77 77 W 7 11 30.04 1017 10 16.0934 0 0
10:55 pm 22:55 Clear 33 0.4 28 -2.1 84 84 W 5 7 30.03 1017 10 16.0934 0 0
11:15 pm 23:15 Clear 33 0.4 27 -2.6 81 81 WNW 6 9 30.03 1017 10 16.0934 0 0
11:35 pm 23:35 Clear 32 0 27 -2.8 82 82 WNW 6 9 30.04 1017 10 16.0934 0 0
11:55 pm 23:55 Clear 31 -0.5 27 -2.7 85 85 NW 7 11 30.04 1017 10 16.0934 0 0

Powered by AerisWeather